Regional Weather Roundup
Issued by NWS State College, PA

Home | Current Version | Previous Version | Graphics & Text | Print | Product List | Glossary On
Versions: 1 2 3 4 5 6 7 8 9 10 11 12 13 14 15 16 17 18 19 20 21 22 23 24 25 26 27 28 29 30 31 32 33 34 35 36 37 38 39 40 41 42 43 44 45 46 47 48 49 50
000
ASUS41 KCTP 281810
RWRCTP

REGIONAL WEATHER ROUNDUP
NATIONAL WEATHER SERVICE STATE COLLEGE PA
100 PM EST SAT FEB 28 2015

Note: "fair" indicates few or no clouds below 12,000 feet with no
significant weather and/or obstructions to visibility.

* = STATION THAT DOES NOT REPORT PRECIPITATION /E.G. RAIN...SNOW...ETC/
    THUNDER OR FOG.

PAZ002>004-007>009-013>016-020>023-029>032-281900-
WESTERN PENNSYLVANIA

CITY           SKY/WX    TMP DP  RH WIND       PRES   REMARKS
ERIE           SUNNY     19   2  47 N8        30.76F WCI   9
MEADVILLE        N/A     18  -2  41 CALM      30.69F
FRANKLIN*      SUNNY     18  -2  41 CALM      30.70F
NEW CASTLE     FAIR      19  -3  38 CALM      30.74F
BEAVER COUNTY  SUNNY     23   0  36 CALM      30.71F
BUTLER*        SUNNY     18  -4  38 E5        30.73F WCI  11
PITTSBURGH INT MOSUNNY   21   2  43 E5        30.71F WCI  15
PITTSBURGH     SUNNY     20  -6  31 VRB3      30.69F
INDIANA*       SUNNY     21  -4  33 CALM      30.73F
LATROBE        SUNNY     23   0  36 CALM      30.72F
WASHINGTON CO* SUNNY     21   3  45 E5        30.70F WCI  15
$$

PAZ004>006-010>012-017>019-024>028-033>037-041-042-045-046-049>053-281900-
CENTRAL PENNSYLVANIA

CITY           SKY/WX    TMP DP  RH WIND       PRES   REMARKS
BRADFORD       SUNNY     20  -6  31 NW6       30.62F WCI  12
DUBOIS         SUNNY     18  -6  34 CALM      30.65F
CLEARFIELD     SUNNY     19  -4  36 CALM      30.70F
JOHNSTOWN      SUNNY     18  -1  43 S5        30.60F WCI  11
ALTOONA        SUNNY     20  -4  34 CALM      30.70F
STATE COLLEGE  SUNNY     18  -4  38 CALM      30.72F
WILLIAMSPORT   SUNNY    N/A N/A N/A CALM      30.79F
SELINSGROVE    SUNNY     20   0  41 S3        30.81F
FT INDIANTOWN  SUNNY     22  -2  34 S8        30.79F WCI  13
CAPITAL CITY   SUNNY     24  -4  29 VRB5      30.80F
HARRISBURG     MOSUNNY   24   0  35 NW5       30.80F
YORK           SUNNY     24  -1  33 VRB3      30.79F
$$

PAZ038>040-043-044-047-048-054-055-060>062-067>071-281900-
EASTERN PENNSYLVANIA

CITY           SKY/WX    TMP DP  RH WIND       PRES   REMARKS
SCRANTON       SUNNY     21   0  39 CALM      30.73F
MOUNT POCONO   SUNNY     20  -6  31 VRB6      30.62F WCI  12
ALLENTOWN      SUNNY     22  -4  32 CALM      30.79F
QUAKERTOWN*    FAIR      23  -2  33 N3        30.79F
READING        SUNNY     23  -4  30 SW6       30.80F
LANCASTER      FAIR      21  -4  33 NW7       30.80F WCI  12
COATESVILLE    CLEAR     25   1  36 NW6       30.77F
POTTSTOWN      SUNNY     24  -3  30 SW7       30.81F
BLUE BELL      SUNNY     27   1  33 SW6       30.79F
DOYLESTOWN     SUNNY     22   1  40 VRB6      30.78F WCI  14
WILLOW GROVE   NOT AVBL
NORTH PHILA    SUNNY     28  -4  25 VRB5      30.82F
PHILADELPHIA   MOSUNNY   27  -2  28 CALM      30.82F
$$



USA.gov is the U.S. government's official web portal to all federal, state and local government web resources and services.